< Cyclone 198913 1990 Season Cyclone 199002 >
Cyclone 199001 (PEDRO)
General InformationTrack Information on Google MapsDetailed Wind InformationList of All Images || ResourceGoogle EarthGE AnimationAtom FeedGeoJSON
Detalied Best Track (Time Zone = UTC)
Year Month Day Hour Lat. Long. Pressure (hPa) Wind (kt) Class Image Chart
1989 11 6 00 -7.7 97.2 1005 23 2 Image --
1989 11 6 06 -7.3 96.7 1003 27 2 Image --
1989 11 6 12 -6.9 96.5 1002 27 2 Image --
1989 11 6 18 -6.6 96.4 1001 29 2 Image --
1989 11 7 00 -6.5 96.1 1000 31 2 Image --
1989 11 7 06 -6.7 95.5 999 33 2 Image --
1989 11 7 12 -6.8 94.8 999 33 2 Image --
1989 11 7 18 -6.9 94.3 998 35 3 Image --
1989 11 8 00 -6.9 93.8 997 35 3 Image --
1989 11 8 06 -7.6 93.5 996 37 3 Image --
1989 11 8 12 -8.3 93.7 996 37 3 Image --
1989 11 8 18 -8.9 94.0 995 39 3 Image --
1989 11 9 00 -9.6 94.2 995 39 3 Image --
1989 11 9 06 -10.2 94.5 995 39 3 Image --
1989 11 9 12 -10.9 94.9 992 43 3 Image --
1989 11 9 18 -11.4 95.1 988 49 4 Image --
1989 11 10 00 -11.9 95.3 984 56 4 Image --
1989 11 10 06 -12.3 95.5 982 58 4 Image --
1989 11 10 12 -12.8 95.9 982 58 4 Image --
1989 11 10 18 -13.2 96.1 984 56 4 Image --
1989 11 11 00 -13.9 96.1 986 53 4 Image --
1989 11 11 06 -14.5 96.0 988 49 4 Image --
1989 11 11 12 -15.4 95.8 990 47 3 Image --
1989 11 11 18 -16.4 95.6 992 43 3 Image --
1989 11 12 00 -17.4 95.0 992 43 3 Image --
1989 11 12 06 -18.3 94.5 994 41 3 Image --
1989 11 12 12 -19.2 94.4 994 41 3 Image --
1989 11 12 18 -20.1 94.5 995 39 3 Image --
1989 11 13 00 -20.6 95.2 995 39 3 Image --
1989 11 13 06 -20.8 96.3 997 35 3 Image --
< Cyclone 198913 1990 Season Cyclone 199002 >

Help